Time,TemperatureF,DewpointF,PressureIn,WindDirection,WindDirectionDegrees,WindSpeedMPH,WindSpeedGustMPH,Humidity,HourlyPrecipIn,Conditions,Clouds,dailyrainin,SoftwareType,DateUTC
2013-10-03 00:01:00,64.0,62.3,28.63,SE,135,0.0,0.0,94,0.00,CLR,SKC,0.00,WeatherDisplay:10.37,2013-10-03 04:01:00,
2013-10-03 00:02:00,64.0,62.3,28.63,SE,135,0.0,0.0,94,0.00,CLR,SKC,0.00,WeatherDisplay:10.37,2013-10-03 04:02:00,
2013-10-03 00:04:00,64.0,62.3,28.63,SE,135,0.0,0.0,94,0.00,CLR,SKC,0.00,WeatherDisplay:10.37,2013-10-03 04:04:00,
2013-10-03 00:05:00,64.0,62.3,28.63,SE,135,0.0,0.0,94,0.00,CLR,SKC,0.00,WeatherDisplay:10.37,2013-10-03 04:05:00,
2013-10-03 00:10:00,63.5,61.4,28.63,SE,135,0.0,0.0,93,0.00,CLR,SKC,0.00,WeatherDisplay:10.37,2013-10-03 04:10:00,
2013-10-03 00:15:00,63.3,61.3,28.63,East,90,0.0,0.0,93,0.00,CLR,SKC,0.00,WeatherDisplay:10.37,2013-10-03 04:15:00,
2013-10-03 00:20:00,63.1,61.1,28.63,East,90,0.0,0.0,93,0.00,CLR,SKC,0.00,WeatherDisplay:10.37,2013-10-03 04:20:00,
2013-10-03 00:25:00,63.0,60.6,28.63,East,90,0.0,0.0,92,0.00,CLR,SKC,0.00,WeatherDisplay:10.37,2013-10-03 04:25:00,
2013-10-03 00:30:00,63.1,60.8,28.63,East,90,0.0,0.0,92,0.00,CLR,SKC,0.00,WeatherDisplay:10.37,2013-10-03 04:30:00,
2013-10-03 00:35:00,63.1,61.1,28.63,East,90,0.0,0.0,93,0.00,CLR,SKC,0.00,WeatherDisplay:10.37,2013-10-03 04:35:00,
2013-10-03 00:40:00,63.0,60.6,28.63,East,90,0.0,0.0,92,0.00,CLR,SKC,0.00,WeatherDisplay:10.37,2013-10-03 04:40:00,
2013-10-03 00:45:00,62.8,60.1,28.63,East,90,0.0,0.0,91,0.00,CLR,SKC,0.00,WeatherDisplay:10.37,2013-10-03 04:45:00,
2013-10-03 00:50:00,62.8,60.1,28.64,East,90,0.0,0.0,91,0.00,CLR,SKC,0.00,WeatherDisplay:10.37,2013-10-03 04:50:00,
2013-10-03 00:55:00,62.6,59.9,28.64,East,90,0.0,0.0,91,0.00,CLR,SKC,0.00,WeatherDisplay:10.37,2013-10-03 04:55:00,
2013-10-03 01:00:00,62.6,60.2,28.63,SE,135,0.0,0.0,92,0.00,CLR,SKC,0.00,WeatherDisplay:10.37,2013-10-03 05:00:00,
2013-10-03 01:05:00,62.6,60.2,28.63,SE,135,0.0,0.0,92,0.00,CLR,SKC,0.00,WeatherDisplay:10.37,2013-10-03 05:05:00,
2013-10-03 01:10:00,62.6,60.2,28.63,SE,135,0.0,0.0,92,0.00,CLR,SKC,0.00,WeatherDisplay:10.37,2013-10-03 05:10:00,
2013-10-03 01:15:00,62.6,60.2,28.63,SE,135,0.0,0.0,92,0.00,CLR,SKC,0.00,WeatherDisplay:10.37,2013-10-03 05:15:00,
2013-10-03 01:20:00,62.6,60.5,28.64,SE,135,0.0,0.0,93,0.00,CLR,SKC,0.00,WeatherDisplay:10.37,2013-10-03 05:20:00,
2013-10-03 01:25:00,62.8,61.0,28.63,SE,135,0.0,0.0,94,0.00,CLR,SKC,0.00,WeatherDisplay:10.37,2013-10-03 05:25:00,
2013-10-03 01:30:00,62.4,60.1,28.64,SE,135,0.0,0.0,92,0.00,CLR,SKC,0.00,WeatherDisplay:10.37,2013-10-03 05:30:00,
2013-10-03 01:35:00,62.4,60.1,28.64,SE,135,0.0,0.0,92,0.00,CLR,SKC,0.00,WeatherDisplay:10.37,2013-10-03 05:35:00,
2013-10-03 01:40:00,62.4,60.1,28.64,SE,135,0.0,0.0,92,0.00,CLR,SKC,0.00,WeatherDisplay:10.37,2013-10-03 05:40:00,
2013-10-03 01:45:00,62.6,60.2,28.63,SE,135,0.0,0.0,92,0.00,CLR,SKC,0.00,WeatherDisplay:10.37,2013-10-03 05:45:00,
2013-10-03 01:50:00,62.6,60.2,28.63,SE,135,0.0,0.0,92,0.00,CLR,SKC,0.00,WeatherDisplay:10.37,2013-10-03 05:50:00,
2013-10-03 01:55:00,62.4,60.1,28.64,SE,135,0.0,0.0,92,0.00,CLR,SKC,0.00,WeatherDisplay:10.37,2013-10-03 05:55:00,
2013-10-03 02:00:00,62.6,60.5,28.63,SE,135,0.0,0.0,93,0.00,CLR,SKC,0.00,WeatherDisplay:10.37,2013-10-03 06:00:00,
2013-10-03 02:05:00,62.6,60.5,28.63,SE,135,0.0,0.0,93,0.00,CLR,SKC,0.00,WeatherDisplay:10.37,2013-10-03 06:05:00,
2013-10-03 02:10:00,62.6,60.5,28.64,SE,135,0.0,0.0,93,0.00,CLR,SKC,0.00,WeatherDisplay:10.37,2013-10-03 06:10:00,
2013-10-03 02:15:00,62.4,60.4,28.64,SE,135,0.0,0.0,93,0.00,CLR,SKC,0.00,WeatherDisplay:10.37,2013-10-03 06:15:00,
2013-10-03 02:20:00,62.2,59.9,28.63,SE,135,0.0,0.0,92,0.00,CLR,SKC,0.00,WeatherDisplay:10.37,2013-10-03 06:20:00,
2013-10-03 02:25:00,62.2,59.9,28.63,South,180,0.0,0.0,92,0.00,CLR,SKC,0.00,WeatherDisplay:10.37,2013-10-03 06:25:00,
2013-10-03 02:30:00,62.2,59.6,28.64,SE,135,1.2,1.2,91,0.00,CLR,SKC,0.00,WeatherDisplay:10.37,2013-10-03 06:30:00,
2013-10-03 02:35:00,62.2,59.3,28.63,SE,135,1.2,0.0,90,0.00,CLR,SKC,0.00,WeatherDisplay:10.37,2013-10-03 06:35:00,
2013-10-03 02:40:00,62.2,59.0,28.64,SE,135,0.0,0.0,89,0.00,CLR,SKC,0.00,WeatherDisplay:10.37,2013-10-03 06:40:00,
2013-10-03 02:45:00,62.2,59.0,28.64,SE,135,0.0,0.0,89,0.00,CLR,SKC,0.00,WeatherDisplay:10.37,2013-10-03 06:45:00,
2013-10-03 02:50:00,62.2,58.6,28.63,SE,135,0.0,0.0,88,0.00,CLR,SKC,0.00,WeatherDisplay:10.37,2013-10-03 06:50:00,
2013-10-03 02:55:00,62.2,58.3,28.64,SE,135,0.0,0.0,87,0.00,CLR,SKC,0.00,WeatherDisplay:10.37,2013-10-03 06:55:00,
2013-10-03 03:00:00,62.1,57.8,28.63,South,180,0.0,0.0,86,0.00,CLR,SKC,0.00,WeatherDisplay:10.37,2013-10-03 07:00:00,
2013-10-03 03:05:00,62.1,57.8,28.63,South,180,0.0,0.0,86,0.00,CLR,SKC,0.00,WeatherDisplay:10.37,2013-10-03 07:05:00,
2013-10-03 03:10:00,61.9,57.0,28.63,SE,135,0.0,0.0,84,0.00,CLR,SKC,0.00,WeatherDisplay:10.37,2013-10-03 07:10:00,
2013-10-03 03:15:00,61.9,56.3,28.64,SE,135,0.0,0.0,82,0.00,CLR,SKC,0.00,WeatherDisplay:10.37,2013-10-03 07:15:00,
2013-10-03 03:20:00,61.9,56.0,28.64,SE,135,0.0,0.0,81,0.00,CLR,SKC,0.00,WeatherDisplay:10.37,2013-10-03 07:20:00,
2013-10-03 03:25:00,61.9,55.6,28.64,SE,135,0.0,0.0,80,0.00,CLR,SKC,0.00,WeatherDisplay:10.37,2013-10-03 07:25:00,
2013-10-03 03:30:00,61.9,55.3,28.64,SE,135,0.0,0.0,79,0.00,CLR,SKC,0.00,WeatherDisplay:10.37,2013-10-03 07:30:00,
2013-10-03 03:35:00,62.1,55.1,28.63,SE,135,0.0,0.0,78,0.00,CLR,SKC,0.00,WeatherDisplay:10.37,2013-10-03 07:35:00,
2013-10-03 03:40:00,62.1,55.1,28.63,SE,135,0.0,0.0,78,0.00,CLR,SKC,0.00,WeatherDisplay:10.37,2013-10-03 07:40:00,
2013-10-03 03:45:00,61.9,54.2,28.63,SE,135,0.0,0.0,76,0.00,CLR,SKC,0.00,WeatherDisplay:10.37,2013-10-03 07:45:00,
2013-10-03 03:50:00,61.9,53.9,28.63,SE,135,0.0,0.0,75,0.00,CLR,SKC,0.00,WeatherDisplay:10.37,2013-10-03 07:50:00,
2013-10-03 03:55:00,61.7,53.0,28.63,SE,135,0.0,0.0,73,0.00,CLR,SKC,0.00,WeatherDisplay:10.37,2013-10-03 07:55:00,
2013-10-03 04:00:00,61.3,51.9,28.63,SE,135,0.0,0.0,71,0.00,CLR,SKC,0.00,WeatherDisplay:10.37,2013-10-03 08:00:00,
2013-10-03 04:05:00,61.3,51.9,28.63,SE,135,0.0,0.0,71,0.00,CLR,SKC,0.00,WeatherDisplay:10.37,2013-10-03 08:05:00,
2013-10-03 04:10:00,61.3,51.5,28.63,South,180,0.0,0.0,70,0.00,CLR,SKC,0.00,WeatherDisplay:10.37,2013-10-03 08:10:00,
2013-10-03 04:15:00,61.3,50.7,28.63,SE,135,0.0,0.0,68,0.00,CLR,SKC,0.00,WeatherDisplay:10.37,2013-10-03 08:15:00,
2013-10-03 04:20:00,61.3,50.3,28.64,SE,135,0.0,0.0,67,0.00,CLR,SKC,0.00,WeatherDisplay:10.37,2013-10-03 08:20:00,
2013-10-03 04:25:00,61.5,50.1,28.64,SE,135,0.0,0.0,66,0.00,CLR,SKC,0.00,WeatherDisplay:10.37,2013-10-03 08:25:00,
2013-10-03 04:30:00,61.7,50.6,28.63,SE,135,0.0,0.0,67,0.00,CLR,SKC,0.00,WeatherDisplay:10.37,2013-10-03 08:30:00,
2013-10-03 04:35:00,61.5,48.8,28.64,SE,135,0.0,0.0,63,0.00,CLR,SKC,0.00,WeatherDisplay:10.37,2013-10-03 08:35:00,
2013-10-03 04:40:00,61.5,47.9,28.64,SE,135,0.0,0.0,61,0.00,CLR,SKC,0.00,WeatherDisplay:10.37,2013-10-03 08:40:00,
2013-10-03 04:45:00,61.5,47.1,28.64,SE,135,0.0,0.0,59,0.00,CLR,SKC,0.00,WeatherDisplay:10.37,2013-10-03 08:45:00,
2013-10-03 04:50:00,61.5,46.1,28.64,SE,135,0.0,0.0,57,0.00,CLR,SKC,0.00,WeatherDisplay:10.37,2013-10-03 08:50:00,
2013-10-03 04:55:00,61.5,45.2,28.64,South,180,0.0,0.0,55,0.00,CLR,SKC,0.00,WeatherDisplay:10.37,2013-10-03 08:55:00,
2013-10-03 05:00:00,61.5,44.7,28.64,SE,135,0.0,0.0,54,0.00,CLR,SKC,0.00,WeatherDisplay:10.37,2013-10-03 09:00:00,
2013-10-03 05:05:00,61.5,44.7,28.64,SE,135,0.0,0.0,54,0.00,CLR,SKC,0.00,WeatherDisplay:10.37,2013-10-03 09:05:00,
2013-10-03 05:10:00,61.7,43.4,28.64,South,180,0.0,0.0,51,0.00,CLR,SKC,0.00,WeatherDisplay:10.37,2013-10-03 09:10:00,
2013-10-03 05:15:00,61.7,42.3,28.64,SE,135,0.0,0.0,49,0.00,CLR,SKC,0.00,WeatherDisplay:10.37,2013-10-03 09:15:00,
2013-10-03 05:20:00,61.7,41.3,28.64,South,180,0.0,0.0,47,0.00,CLR,SKC,0.00,WeatherDisplay:10.37,2013-10-03 09:20:00,
2013-10-03 05:25:00,61.5,39.4,28.64,SE,135,0.0,0.0,44,0.00,CLR,SKC,0.00,WeatherDisplay:10.37,2013-10-03 09:25:00,
2013-10-03 05:30:00,61.5,38.2,28.64,SE,135,0.0,0.0,42,0.00,CLR,SKC,0.00,WeatherDisplay:10.37,2013-10-03 09:30:00,
2013-10-03 05:35:00,61.5,37.0,28.64,SE,135,0.0,0.0,40,0.00,CLR,SKC,0.00,WeatherDisplay:10.37,2013-10-03 09:35:00,
2013-10-03 05:40:00,61.5,35.7,28.64,SE,135,0.0,0.0,38,0.00,CLR,SKC,0.00,WeatherDisplay:10.37,2013-10-03 09:40:00,
2013-10-03 05:45:00,61.3,34.1,28.64,SE,135,0.0,0.0,36,0.00,CLR,SKC,0.00,WeatherDisplay:10.37,2013-10-03 09:45:00,
2013-10-03 05:50:00,61.2,32.5,28.64,SE,135,0.0,0.0,34,0.00,CLR,SKC,0.00,WeatherDisplay:10.37,2013-10-03 09:50:00,
2013-10-03 05:55:00,61.2,31.0,28.64,SE,135,0.0,0.0,32,0.00,CLR,SKC,0.00,WeatherDisplay:10.37,2013-10-03 09:55:00,
2013-10-03 06:00:00,61.3,30.4,28.63,SE,135,3.5,3.5,31,0.00,CLR,SKC,0.00,WeatherDisplay:10.37,2013-10-03 10:00:00,
2013-10-03 06:05:00,61.3,30.4,28.64,SE,135,3.5,3.5,31,0.00,CLR,SKC,0.00,WeatherDisplay:10.37,2013-10-03 10:05:00,
2013-10-03 06:10:00,61.2,30.3,28.64,SE,135,0.0,0.0,31,0.00,CLR,SKC,0.00,WeatherDisplay:10.37,2013-10-03 10:10:00,
2013-10-03 06:15:00,61.2,30.3,28.64,SE,135,0.0,0.0,31,0.00,CLR,SKC,0.00,WeatherDisplay:10.37,2013-10-03 10:15:00,
2013-10-03 06:20:00,61.0,30.1,28.64,SE,135,0.0,0.0,31,0.00,CLR,SKC,0.00,WeatherDisplay:10.37,2013-10-03 10:20:00,
2013-10-03 06:25:00,61.2,30.3,28.64,SE,135,0.0,0.0,31,0.00,CLR,SKC,0.00,WeatherDisplay:10.37,2013-10-03 10:25:00,
2013-10-03 06:30:00,61.2,30.3,28.64,SE,135,0.0,0.0,31,0.00,CLR,SKC,0.00,WeatherDisplay:10.37,2013-10-03 10:30:00,
2013-10-03 06:35:00,61.2,30.3,28.64,SE,135,0.0,0.0,31,0.00,CLR,SKC,0.00,WeatherDisplay:10.37,2013-10-03 10:35:00,
2013-10-03 06:40:00,61.2,30.3,28.64,SE,135,0.0,0.0,31,0.00,CLR,SKC,0.00,WeatherDisplay:10.37,2013-10-03 10:40:00,
2013-10-03 06:45:00,61.2,30.3,28.64,SE,135,0.0,0.0,31,0.00,CLR,SKC,0.00,WeatherDisplay:10.37,2013-10-03 10:45:00,
2013-10-03 06:50:00,61.0,30.1,28.64,South,180,0.0,0.0,31,0.00,CLR,SKC,0.00,WeatherDisplay:10.37,2013-10-03 10:50:00,
2013-10-03 06:55:00,61.0,30.1,28.64,SE,135,0.0,0.0,31,0.00,CLR,SKC,0.00,WeatherDisplay:10.37,2013-10-03 10:55:00,
2013-10-03 07:00:00,60.8,29.9,28.64,SE,135,0.0,0.0,31,0.00,CLR,SKC,0.00,WeatherDisplay:10.37,2013-10-03 11:00:00,
2013-10-03 07:05:00,60.8,29.9,28.64,SE,135,0.0,0.0,31,0.00,CLR,SKC,0.00,WeatherDisplay:10.37,2013-10-03 11:05:00,
2013-10-03 07:10:00,61.3,30.4,28.65,SE,135,0.0,0.0,31,0.00,CLR,SKC,0.00,WeatherDisplay:10.37,2013-10-03 11:10:00,
2013-10-03 07:15:00,61.3,30.4,28.64,SE,135,0.0,0.0,31,0.00,CLR,SKC,0.00,WeatherDisplay:10.37,2013-10-03 11:15:00,
2013-10-03 07:20:00,61.2,30.3,28.65,SE,135,0.0,0.0,31,0.00,CLR,SKC,0.00,WeatherDisplay:10.37,2013-10-03 11:20:00,
2013-10-03 07:25:00,61.2,30.3,28.65,SE,135,0.0,0.0,31,0.00,CLR,SKC,0.00,WeatherDisplay:10.37,2013-10-03 11:25:00,
2013-10-03 07:30:00,61.2,30.3,28.65,SE,135,0.0,0.0,31,0.00,CLR,SKC,0.00,WeatherDisplay:10.37,2013-10-03 11:30:00,
2013-10-03 07:35:00,61.2,30.3,28.65,SE,135,0.0,0.0,31,0.00,CLR,SKC,0.00,WeatherDisplay:10.37,2013-10-03 11:35:00,
2013-10-03 07:40:00,61.3,30.4,28.64,SE,135,0.0,0.0,31,0.00,CLR,SKC,0.00,WeatherDisplay:10.37,2013-10-03 11:40:00,
2013-10-03 07:45:00,61.3,30.4,28.64,ESE,112,0.0,0.0,31,0.00,CLR,SKC,0.00,WeatherDisplay:10.37,2013-10-03 11:45:00,
2013-10-03 07:50:00,61.3,30.4,28.64,South,180,0.0,0.0,31,0.00,CLR,SKC,0.00,WeatherDisplay:10.37,2013-10-03 11:50:00,
2013-10-03 07:55:00,61.3,30.4,28.64,North,3,0.0,0.0,31,0.00,CLR,SKC,0.00,WeatherDisplay:10.37,2013-10-03 11:55:00,
2013-10-03 08:00:00,61.5,30.6,28.65,North,0,0.0,0.0,31,0.00,CLR,SKC,0.00,WeatherDisplay:10.37,2013-10-03 12:00:00,
2013-10-03 08:05:00,61.5,30.6,28.65,North,0,0.0,0.0,31,0.00,CLR,SKC,0.00,WeatherDisplay:10.37,2013-10-03 12:05:00,
2013-10-03 08:10:00,62.2,31.2,28.65,East,90,0.0,0.0,31,0.00,CLR,SKC,0.00,WeatherDisplay:10.37,2013-10-03 12:10:00,
2013-10-03 08:15:00,62.8,31.7,28.65,East,90,0.0,0.0,31,0.00,CLR,SKC,0.00,WeatherDisplay:10.37,2013-10-03 12:15:00,
2013-10-03 08:20:00,63.1,32.0,28.64,East,90,0.0,0.0,31,0.00,CLR,SKC,0.00,WeatherDisplay:10.37,2013-10-03 12:20:00,
2013-10-03 08:25:00,63.3,32.1,28.65,SE,135,0.0,0.0,31,0.00,CLR,SKC,0.00,WeatherDisplay:10.37,2013-10-03 12:25:00,
2013-10-03 08:30:00,63.3,32.1,28.65,SE,135,0.0,0.0,31,0.00,CLR,SKC,0.00,WeatherDisplay:10.37,2013-10-03 12:30:00,
2013-10-03 08:35:00,63.3,32.1,28.65,SE,135,0.0,0.0,31,0.00,CLR,SKC,0.00,WeatherDisplay:10.37,2013-10-03 12:35:00,
2013-10-03 08:40:00,63.5,32.3,28.65,South,180,0.0,0.0,31,0.00,CLR,SKC,0.00,WeatherDisplay:10.37,2013-10-03 12:40:00,
2013-10-03 08:45:00,63.7,32.5,28.65,SE,135,0.0,0.0,31,0.00,CLR,SKC,0.00,WeatherDisplay:10.37,2013-10-03 12:45:00,
2013-10-03 08:50:00,63.9,32.6,28.65,SE,135,0.0,0.0,31,0.00,CLR,SKC,0.00,WeatherDisplay:10.37,2013-10-03 12:50:00,
2013-10-03 08:55:00,64.2,32.9,28.65,SE,135,0.0,0.0,31,0.00,CLR,SKC,0.00,WeatherDisplay:10.37,2013-10-03 12:55:00,
2013-10-03 09:00:00,64.4,33.1,28.65,East,90,0.0,0.0,31,0.00,CLR,SKC,0.00,WeatherDisplay:10.37,2013-10-03 13:00:00,
2013-10-03 09:05:00,64.4,33.1,28.65,East,90,0.0,0.0,31,0.00,CLR,SKC,0.00,WeatherDisplay:10.37,2013-10-03 13:05:00,
2013-10-03 09:10:00,64.9,33.6,28.66,SE,135,0.0,0.0,31,0.00,CLR,SKC,0.00,WeatherDisplay:10.37,2013-10-03 13:10:00,
2013-10-03 09:15:00,65.5,34.0,28.65,SE,135,0.0,0.0,31,0.00,CLR,SKC,0.00,WeatherDisplay:10.37,2013-10-03 13:15:00,
2013-10-03 09:20:00,66.0,34.5,28.65,SE,135,0.0,0.0,31,0.00,CLR,SKC,0.00,WeatherDisplay:10.37,2013-10-03 13:20:00,
2013-10-03 09:25:00,66.6,35.0,28.65,SE,135,0.0,0.0,31,0.00,CLR,SKC,0.00,WeatherDisplay:10.37,2013-10-03 13:25:00,
2013-10-03 09:30:00,67.5,35.7,28.65,SE,135,0.0,0.0,31,0.00,CLR,SKC,0.00,WeatherDisplay:10.37,2013-10-03 13:30:00,
2013-10-03 09:35:00,68.0,36.2,28.65,SE,135,0.0,0.0,31,0.00,CLR,SKC,0.00,WeatherDisplay:10.37,2013-10-03 13:35:00,
2013-10-03 09:40:00,68.2,36.4,28.66,ESE,112,0.0,0.0,31,0.00,CLR,SKC,0.00,WeatherDisplay:10.37,2013-10-03 13:40:00,
2013-10-03 09:45:00,68.2,36.4,28.66,SE,135,0.0,0.0,31,0.00,CLR,SKC,0.00,WeatherDisplay:10.37,2013-10-03 13:45:00,
2013-10-03 09:50:00,68.4,36.5,28.65,South,180,0.0,0.0,31,0.00,CLR,SKC,0.00,WeatherDisplay:10.37,2013-10-03 13:50:00,
2013-10-03 09:55:00,68.9,37.0,28.65,SE,135,2.3,0.0,31,0.00,CLR,SKC,0.00,WeatherDisplay:10.37,2013-10-03 13:55:00,
2013-10-03 10:00:00,69.4,37.5,28.65,SE,135,3.5,3.5,31,0.00,CLR,SKC,0.00,WeatherDisplay:10.37,2013-10-03 14:00:00,
2013-10-03 10:05:00,69.4,37.5,28.65,SE,135,3.5,3.5,31,0.00,CLR,SKC,0.00,WeatherDisplay:10.37,2013-10-03 14:05:00,
2013-10-03 10:10:00,70.9,38.7,28.65,SSE,158,4.6,4.6,31,0.00,CLR,SKC,0.00,WeatherDisplay:10.37,2013-10-03 14:10:00,
2013-10-03 10:15:00,70.9,38.7,28.65,SE,135,4.6,0.0,31,0.00,CLR,SKC,0.00,WeatherDisplay:10.37,2013-10-03 14:15:00,
2013-10-03 10:20:00,71.4,39.2,28.65,South,180,3.5,3.5,31,0.00,CLR,SKC,0.00,WeatherDisplay:10.37,2013-10-03 14:20:00,
2013-10-03 10:25:00,72.0,39.7,28.65,East,90,1.2,1.2,31,0.00,CLR,SKC,0.00,WeatherDisplay:10.37,2013-10-03 14:25:00,
2013-10-03 10:30:00,72.1,39.8,28.65,SE,135,3.5,3.5,31,0.00,CLR,SKC,0.00,WeatherDisplay:10.37,2013-10-03 14:30:00,
2013-10-03 10:35:00,72.5,40.1,28.65,SE,135,0.0,0.0,31,0.00,CLR,SKC,0.00,WeatherDisplay:10.37,2013-10-03 14:35:00,
2013-10-03 10:40:00,72.7,40.3,28.65,SE,135,4.6,4.6,31,0.00,CLR,SKC,0.00,WeatherDisplay:10.37,2013-10-03 14:40:00,
2013-10-03 10:45:00,72.7,40.3,28.64,South,180,4.6,4.6,31,0.00,CLR,SKC,0.00,WeatherDisplay:10.37,2013-10-03 14:45:00,
2013-10-03 10:50:00,73.8,41.2,28.65,East,90,3.5,0.0,31,0.00,CLR,SKC,0.00,WeatherDisplay:10.37,2013-10-03 14:50:00,
2013-10-03 10:55:00,75.6,42.8,28.64,South,180,5.8,5.8,31,0.00,CLR,SKC,0.00,WeatherDisplay:10.37,2013-10-03 14:55:00,
2013-10-03 11:00:00,76.6,43.7,28.64,South,180,3.5,3.5,31,0.00,CLR,SKC,0.00,WeatherDisplay:10.37,2013-10-03 15:00:00,
2013-10-03 11:05:00,76.6,43.7,28.64,South,180,3.5,3.5,31,0.00,CLR,SKC,0.00,WeatherDisplay:10.37,2013-10-03 15:05:00,
2013-10-03 11:10:00,78.4,45.3,28.64,SE,135,4.6,0.0,31,0.00,CLR,SKC,0.00,WeatherDisplay:10.37,2013-10-03 15:10:00,
2013-10-03 11:15:00,79.5,46.2,28.64,SE,135,3.5,3.5,31,0.00,CLR,SKC,0.00,WeatherDisplay:10.37,2013-10-03 15:15:00,
2013-10-03 11:20:00,80.4,47.0,28.64,South,180,3.5,3.5,31,0.00,CLR,SKC,0.00,WeatherDisplay:10.37,2013-10-03 15:20:00,
2013-10-03 11:25:00,81.1,47.6,28.64,NW,315,1.2,0.0,31,0.00,CLR,SKC,0.00,WeatherDisplay:10.37,2013-10-03 15:25:00,
2013-10-03 11:30:00,79.5,46.2,28.64,SE,135,3.5,3.5,31,0.00,CLR,SKC,0.00,WeatherDisplay:10.37,2013-10-03 15:30:00,
2013-10-03 11:35:00,78.6,45.4,28.64,South,180,3.8,0.0,31,0.00,CLR,SKC,0.00,WeatherDisplay:10.37,2013-10-03 15:35:00,
2013-10-03 11:40:00,78.1,45.0,28.64,East,90,3.5,3.5,31,0.00,CLR,SKC,0.00,WeatherDisplay:10.37,2013-10-03 15:40:00,
2013-10-03 11:45:00,78.3,45.1,28.64,SSE,158,2.3,2.3,31,0.00,CLR,SKC,0.00,WeatherDisplay:10.37,2013-10-03 15:45:00,
2013-10-03 11:50:00,78.8,45.6,28.64,SE,135,3.5,3.5,31,0.00,CLR,SKC,0.00,WeatherDisplay:10.37,2013-10-03 15:50:00,
2013-10-03 11:55:00,79.9,46.5,28.64,SE,135,5.8,5.8,31,0.00,CLR,SKC,0.00,WeatherDisplay:10.37,2013-10-03 15:55:00,
2013-10-03 12:00:00,79.9,46.5,28.64,South,180,3.5,3.5,31,0.00,CLR,SKC,0.00,WeatherDisplay:10.37,2013-10-03 16:00:00,
2013-10-03 12:05:00,79.9,46.5,28.64,South,180,3.5,3.5,31,0.00,CLR,SKC,0.00,WeatherDisplay:10.37,2013-10-03 16:05:00,
2013-10-03 12:10:00,78.6,45.4,28.64,NE,45,4.6,4.6,31,0.00,CLR,SKC,0.00,WeatherDisplay:10.37,2013-10-03 16:10:00,
2013-10-03 12:15:00,81.0,47.5,28.63,SE,135,1.2,0.0,31,0.00,CLR,SKC,0.00,WeatherDisplay:10.37,2013-10-03 16:15:00,
2013-10-03 12:20:00,80.8,47.3,28.63,North,5,5.8,5.8,31,0.00,CLR,SKC,0.00,WeatherDisplay:10.37,2013-10-03 16:20:00,
2013-10-03 12:25:00,80.6,47.2,28.63,SSE,158,5.8,5.8,31,0.00,CLR,SKC,0.00,WeatherDisplay:10.37,2013-10-03 16:25:00,
2013-10-03 12:30:00,79.9,46.5,28.63,East,90,7.6,7.6,31,0.00,CLR,SKC,0.00,WeatherDisplay:10.37,2013-10-03 16:30:00,
2013-10-03 12:35:00,79.3,46.1,28.63,South,180,8.1,8.1,31,0.00,CLR,SKC,0.00,WeatherDisplay:10.37,2013-10-03 16:35:00,
2013-10-03 12:40:00,79.7,46.4,28.63,NE,45,2.3,0.0,31,0.00,CLR,SKC,0.00,WeatherDisplay:10.37,2013-10-03 16:40:00,
2013-10-03 12:45:00,79.7,46.4,28.63,South,180,5.8,0.0,31,0.00,CLR,SKC,0.00,WeatherDisplay:10.37,2013-10-03 16:45:00,
2013-10-03 12:50:00,79.9,46.5,28.63,South,180,3.5,3.5,31,0.00,CLR,SKC,0.00,WeatherDisplay:10.37,2013-10-03 16:50:00,
2013-10-03 12:55:00,79.9,46.5,28.63,South,180,2.3,2.3,31,0.00,CLR,SKC,0.00,WeatherDisplay:10.37,2013-10-03 16:55:00,
2013-10-03 13:00:00,79.5,46.2,28.62,SE,135,4.6,4.6,31,0.00,CLR,SKC,0.00,WeatherDisplay:10.37,2013-10-03 17:00:00,
2013-10-03 13:05:00,79.5,46.2,28.62,SE,135,2.3,2.3,31,0.00,CLR,SKC,0.00,WeatherDisplay:10.37,2013-10-03 17:05:00,
2013-10-03 13:10:00,78.8,46.4,28.62,East,90,2.3,0.0,32,0.00,CLR,SKC,0.00,WeatherDisplay:10.37,2013-10-03 17:10:00,
2013-10-03 13:15:00,78.8,49.6,28.62,SE,135,4.5,4.5,36,0.00,CLR,SKC,0.00,WeatherDisplay:10.37,2013-10-03 17:15:00,
2013-10-03 13:20:00,78.6,51.6,28.62,South,180,3.5,3.5,39,0.00,CLR,SKC,0.00,WeatherDisplay:10.37,2013-10-03 17:20:00,
2013-10-03 13:25:00,78.8,53.1,28.61,SSE,158,6.9,6.9,41,0.00,CLR,SKC,0.00,WeatherDisplay:10.37,2013-10-03 17:25:00,
2013-10-03 13:30:00,78.3,55.2,28.62,SE,135,3.5,3.5,45,0.00,CLR,SKC,0.00,WeatherDisplay:10.37,2013-10-03 17:30:00,
2013-10-03 13:35:00,78.8,57.4,28.62,SE,135,2.3,2.3,48,0.00,CLR,SKC,0.00,WeatherDisplay:10.37,2013-10-03 17:35:00,
2013-10-03 13:40:00,79.0,57.6,28.61,SE,135,6.9,6.9,48,0.00,CLR,SKC,0.00,WeatherDisplay:10.37,2013-10-03 17:40:00,
2013-10-03 13:45:00,79.2,59.5,28.61,East,90,4.6,4.6,51,0.00,CLR,SKC,0.00,WeatherDisplay:10.37,2013-10-03 17:45:00,
2013-10-03 13:50:00,79.3,60.2,28.61,East,90,3.5,0.0,52,0.00,CLR,SKC,0.00,WeatherDisplay:10.37,2013-10-03 17:50:00,
2013-10-03 13:55:00,79.5,60.9,28.61,East,90,6.9,6.9,53,0.00,CLR,SKC,0.00,WeatherDisplay:10.37,2013-10-03 17:55:00,
2013-10-03 14:00:00,79.7,62.1,28.61,SE,135,5.8,0.0,55,0.00,CLR,SKC,0.00,WeatherDisplay:10.37,2013-10-03 18:00:00,
2013-10-03 14:05:00,79.7,62.1,28.60,SE,135,1.2,0.0,55,0.00,CLR,SKC,0.00,WeatherDisplay:10.37,2013-10-03 18:05:00,
2013-10-03 14:10:00,82.0,63.8,28.60,SE,135,3.5,0.0,54,0.00,CLR,SKC,0.00,WeatherDisplay:10.37,2013-10-03 18:10:00,
2013-10-03 14:15:00,81.7,62.9,28.61,SE,135,5.8,5.8,53,0.00,CLR,SKC,0.00,WeatherDisplay:10.37,2013-10-03 18:15:00,
2013-10-03 14:20:00,80.1,64.4,28.60,North,8,3.5,3.5,59,0.00,CLR,SKC,0.00,WeatherDisplay:10.37,2013-10-03 18:20:00,
2013-10-03 14:25:00,79.3,65.2,28.60,South,180,3.5,3.5,62,0.00,CLR,SKC,0.00,WeatherDisplay:10.37,2013-10-03 18:25:00,
2013-10-03 14:30:00,78.8,66.0,28.60,NW,315,1.2,0.0,65,0.00,CLR,SKC,0.00,WeatherDisplay:10.37,2013-10-03 18:30:00,
2013-10-03 14:35:00,78.4,66.1,28.60,ESE,112,6.9,6.9,66,0.00,CLR,SKC,0.00,WeatherDisplay:10.37,2013-10-03 18:35:00,
2013-10-03 14:40:00,78.1,67.1,28.60,SE,135,2.3,0.0,69,0.00,CLR,SKC,0.00,WeatherDisplay:10.37,2013-10-03 18:40:00,
2013-10-03 14:45:00,78.1,67.5,28.60,South,180,3.5,3.5,70,0.00,CLR,SKC,0.00,WeatherDisplay:10.37,2013-10-03 18:45:00,
2013-10-03 14:50:00,77.5,67.4,28.60,South,180,3.5,3.5,71,0.00,CLR,SKC,0.00,WeatherDisplay:10.37,2013-10-03 18:50:00,
2013-10-03 14:55:00,77.5,68.2,28.60,SE,135,1.6,0.0,73,0.00,CLR,SKC,0.00,WeatherDisplay:10.37,2013-10-03 18:55:00,
2013-10-03 15:00:00,77.7,68.4,28.60,North,6,1.2,0.0,73,0.00,CLR,SKC,0.00,WeatherDisplay:10.37,2013-10-03 19:00:00,
2013-10-03 15:05:00,77.7,68.4,28.60,North,0,1.2,0.0,73,0.00,CLR,SKC,0.00,WeatherDisplay:10.37,2013-10-03 19:05:00,
2013-10-03 15:10:00,77.5,68.6,28.59,South,180,3.5,0.0,74,0.00,CLR,SKC,0.00,WeatherDisplay:10.37,2013-10-03 19:10:00,
2013-10-03 15:15:00,77.5,68.6,28.59,East,90,4.6,4.6,74,0.00,CLR,SKC,0.00,WeatherDisplay:10.37,2013-10-03 19:15:00,
2013-10-03 15:20:00,77.5,68.6,28.59,South,180,5.8,5.8,74,0.00,CLR,SKC,0.00,WeatherDisplay:10.37,2013-10-03 19:20:00,
2013-10-03 15:25:00,77.7,69.5,28.59,South,180,3.5,3.5,76,0.00,CLR,SKC,0.00,WeatherDisplay:10.37,2013-10-03 19:25:00,
2013-10-03 15:30:00,77.7,69.5,28.58,South,180,0.0,0.0,76,0.00,CLR,SKC,0.00,WeatherDisplay:10.37,2013-10-03 19:30:00,
2013-10-03 15:35:00,78.1,69.9,28.58,SE,135,3.8,3.8,76,0.00,CLR,SKC,0.00,WeatherDisplay:10.37,2013-10-03 19:35:00,
2013-10-03 15:40:00,77.7,69.9,28.58,SE,135,1.2,0.0,77,0.00,CLR,SKC,0.00,WeatherDisplay:10.37,2013-10-03 19:40:00,
2013-10-03 15:45:00,78.1,70.3,28.58,South,180,2.3,2.3,77,0.00,CLR,SKC,0.00,WeatherDisplay:10.37,2013-10-03 19:45:00,
2013-10-03 15:50:00,77.7,69.9,28.58,South,180,3.5,0.0,77,0.00,CLR,SKC,0.00,WeatherDisplay:10.37,2013-10-03 19:50:00,
2013-10-03 15:55:00,77.5,70.5,28.58,SE,135,5.8,5.8,79,0.00,CLR,SKC,0.00,WeatherDisplay:10.37,2013-10-03 19:55:00,
2013-10-03 16:00:00,77.4,70.3,28.58,South,180,3.5,3.5,79,0.00,CLR,SKC,0.00,WeatherDisplay:10.37,2013-10-03 20:00:00,
2013-10-03 16:05:00,77.4,70.3,28.58,South,180,2.3,2.3,79,0.00,CLR,SKC,0.00,WeatherDisplay:10.37,2013-10-03 20:05:00,
2013-10-03 16:10:00,77.2,70.5,28.58,SE,135,0.0,0.0,80,0.00,CLR,SKC,0.00,WeatherDisplay:10.37,2013-10-03 20:10:00,
2013-10-03 16:15:00,77.4,70.7,28.58,SE,135,0.0,0.0,80,0.00,CLR,SKC,0.00,WeatherDisplay:10.37,2013-10-03 20:15:00,
2013-10-03 16:20:00,77.4,70.7,28.58,SE,135,4.6,4.6,80,0.00,CLR,SKC,0.00,WeatherDisplay:10.37,2013-10-03 20:20:00,
2013-10-03 16:25:00,77.4,70.7,28.57,SE,135,3.5,0.0,80,0.00,CLR,SKC,0.00,WeatherDisplay:10.37,2013-10-03 20:25:00,
2013-10-03 16:30:00,77.7,71.4,28.58,ESE,112,0.0,0.0,81,0.00,CLR,SKC,0.00,WeatherDisplay:10.37,2013-10-03 20:30:00,
2013-10-03 16:35:00,78.1,71.0,28.57,SE,135,0.0,0.0,79,0.00,CLR,SKC,0.00,WeatherDisplay:10.37,2013-10-03 20:35:00,
2013-10-03 16:40:00,78.3,71.2,28.58,South,180,3.5,0.0,79,0.00,CLR,SKC,0.00,WeatherDisplay:10.37,2013-10-03 20:40:00,
2013-10-03 16:45:00,78.6,71.9,28.58,South,180,4.6,0.0,80,0.00,CLR,SKC,0.00,WeatherDisplay:10.37,2013-10-03 20:45:00,
2013-10-03 16:50:00,78.8,72.1,28.58,South,180,3.5,3.5,80,0.00,CLR,SKC,0.00,WeatherDisplay:10.37,2013-10-03 20:50:00,
2013-10-03 16:55:00,78.8,71.7,28.58,SSE,158,5.8,5.8,79,0.00,CLR,SKC,0.00,WeatherDisplay:10.37,2013-10-03 20:55:00,
2013-10-03 17:00:00,78.6,71.6,28.57,SSE,158,2.3,0.0,79,0.00,CLR,SKC,0.00,WeatherDisplay:10.37,2013-10-03 21:00:00,
2013-10-03 17:05:00,78.6,71.6,28.58,SSE,158,0.0,0.0,79,0.00,CLR,SKC,0.00,WeatherDisplay:10.37,2013-10-03 21:05:00,
2013-10-03 17:10:00,78.3,71.6,28.58,East,90,0.0,0.0,80,0.00,CLR,SKC,0.00,WeatherDisplay:10.37,2013-10-03 21:10:00,
2013-10-03 17:15:00,78.3,71.9,28.58,South,180,0.0,0.0,81,0.00,CLR,SKC,0.00,WeatherDisplay:10.37,2013-10-03 21:15:00,
2013-10-03 17:20:00,78.3,71.9,28.58,South,180,0.0,0.0,81,0.00,CLR,SKC,0.00,WeatherDisplay:10.37,2013-10-03 21:20:00,
2013-10-03 17:25:00,78.3,72.3,28.58,North,0,2.3,0.0,82,0.00,CLR,SKC,0.00,WeatherDisplay:10.37,2013-10-03 21:25:00,
2013-10-03 17:30:00,78.1,71.8,28.58,South,180,0.0,0.0,81,0.00,CLR,SKC,0.00,WeatherDisplay:10.37,2013-10-03 21:30:00,
2013-10-03 17:35:00,78.1,72.1,28.58,South,180,0.0,0.0,82,0.00,CLR,SKC,0.00,WeatherDisplay:10.37,2013-10-03 21:35:00,
2013-10-03 17:40:00,78.1,72.5,28.57,North,8,0.0,0.0,83,0.00,CLR,SKC,0.00,WeatherDisplay:10.37,2013-10-03 21:40:00,
2013-10-03 17:45:00,77.7,72.1,28.58,SSE,158,0.0,0.0,83,0.00,CLR,SKC,0.00,WeatherDisplay:10.37,2013-10-03 21:45:00,
2013-10-03 17:50:00,77.5,72.0,28.58,South,180,0.0,0.0,83,0.00,CLR,SKC,0.00,WeatherDisplay:10.37,2013-10-03 21:50:00,
2013-10-03 17:55:00,77.4,71.8,28.58,SE,135,0.0,0.0,83,0.00,CLR,SKC,0.00,WeatherDisplay:10.37,2013-10-03 21:55:00,
2013-10-03 18:00:00,77.4,72.1,28.57,SE,135,0.0,0.0,84,0.00,CLR,SKC,0.00,WeatherDisplay:10.37,2013-10-03 22:00:00,
2013-10-03 18:05:00,77.4,72.1,28.57,SE,135,0.0,0.0,84,0.00,CLR,SKC,0.00,WeatherDisplay:10.37,2013-10-03 22:05:00,
2013-10-03 18:10:00,77.0,71.8,28.57,South,180,0.0,0.0,84,0.00,CLR,SKC,0.00,WeatherDisplay:10.37,2013-10-03 22:10:00,
2013-10-03 18:15:00,76.6,71.8,28.57,SE,135,3.5,0.0,85,0.00,CLR,SKC,0.00,WeatherDisplay:10.37,2013-10-03 22:15:00,
2013-10-03 18:20:00,76.3,71.4,28.57,South,180,0.0,0.0,85,0.00,CLR,SKC,0.00,WeatherDisplay:10.37,2013-10-03 22:20:00,
2013-10-03 18:25:00,75.9,71.4,28.57,South,180,0.0,0.0,86,0.00,CLR,SKC,0.00,WeatherDisplay:10.37,2013-10-03 22:25:00,
2013-10-03 18:30:00,75.4,70.9,28.57,South,180,0.0,0.0,86,0.00,CLR,SKC,0.00,WeatherDisplay:10.37,2013-10-03 22:30:00,
2013-10-03 18:35:00,75.0,70.9,28.57,SE,135,0.0,0.0,87,0.00,CLR,SKC,0.00,WeatherDisplay:10.37,2013-10-03 22:35:00,
2013-10-03 18:40:00,74.8,70.7,28.57,SE,135,0.0,0.0,87,0.00,CLR,SKC,0.00,WeatherDisplay:10.37,2013-10-03 22:40:00,
2013-10-03 18:45:00,74.5,70.7,28.57,SE,135,0.0,0.0,88,0.00,CLR,SKC,0.00,WeatherDisplay:10.37,2013-10-03 22:45:00,
2013-10-03 18:50:00,74.1,70.3,28.58,South,180,0.0,0.0,88,0.00,CLR,SKC,0.00,WeatherDisplay:10.37,2013-10-03 22:50:00,
2013-10-03 18:55:00,74.1,70.7,28.58,SE,135,0.0,0.0,89,0.00,CLR,SKC,0.00,WeatherDisplay:10.37,2013-10-03 22:55:00,
2013-10-03 19:00:00,73.8,70.3,28.58,SE,135,0.0,0.0,89,0.00,CLR,SKC,0.00,WeatherDisplay:10.37,2013-10-03 23:00:00,
2013-10-03 19:05:00,73.8,70.3,28.58,SE,135,0.0,0.0,89,0.00,CLR,SKC,0.00,WeatherDisplay:10.37,2013-10-03 23:05:00,
2013-10-03 19:10:00,73.4,70.0,28.58,SE,135,0.0,0.0,89,0.00,CLR,SKC,0.00,WeatherDisplay:10.37,2013-10-03 23:10:00,
2013-10-03 19:15:00,73.0,69.6,28.58,SE,135,0.0,0.0,89,0.00,CLR,SKC,0.00,WeatherDisplay:10.37,2013-10-03 23:15:00,
2013-10-03 19:20:00,72.9,69.8,28.58,SE,135,0.0,0.0,90,0.00,CLR,SKC,0.00,WeatherDisplay:10.37,2013-10-03 23:20:00,
2013-10-03 19:25:00,72.5,69.4,28.58,SE,135,0.0,0.0,90,0.00,CLR,SKC,0.00,WeatherDisplay:10.37,2013-10-03 23:25:00,
2013-10-03 19:30:00,72.3,69.2,28.58,SE,135,0.0,0.0,90,0.00,CLR,SKC,0.00,WeatherDisplay:10.37,2013-10-03 23:30:00,
2013-10-03 19:35:00,72.3,69.5,28.58,SE,135,0.0,0.0,91,0.00,CLR,SKC,0.00,WeatherDisplay:10.37,2013-10-03 23:35:00,
2013-10-03 19:40:00,72.5,69.7,28.58,SE,135,0.0,0.0,91,0.00,CLR,SKC,0.00,WeatherDisplay:10.37,2013-10-03 23:40:00,
2013-10-03 19:45:00,72.5,69.7,28.58,SE,135,0.0,0.0,91,0.00,CLR,SKC,0.00,WeatherDisplay:10.37,2013-10-03 23:45:00,
2013-10-03 19:50:00,72.3,69.5,28.58,SE,135,0.0,0.0,91,0.00,CLR,SKC,0.00,WeatherDisplay:10.37,2013-10-03 23:50:00,
2013-10-03 19:55:00,72.3,69.5,28.58,SE,135,0.0,0.0,91,0.00,CLR,SKC,0.00,WeatherDisplay:10.37,2013-10-03 23:55:00,
2013-10-03 20:00:00,72.3,69.5,28.58,SE,135,0.0,0.0,91,0.00,CLR,SKC,0.00,WeatherDisplay:10.37,2013-10-04 00:00:00,
2013-10-03 20:05:00,72.3,69.5,28.58,SE,135,0.0,0.0,91,0.00,CLR,SKC,0.00,WeatherDisplay:10.37,2013-10-04 00:05:00,
2013-10-03 20:10:00,72.1,69.4,28.58,SE,135,0.0,0.0,91,0.00,CLR,SKC,0.00,WeatherDisplay:10.37,2013-10-04 00:10:00,
2013-10-03 20:15:00,72.0,69.2,28.58,SE,135,0.0,0.0,91,0.00,CLR,SKC,0.00,WeatherDisplay:10.37,2013-10-04 00:15:00,
2013-10-03 20:20:00,72.0,69.2,28.59,SE,135,0.0,0.0,91,0.00,CLR,SKC,0.00,WeatherDisplay:10.37,2013-10-04 00:20:00,
2013-10-03 20:25:00,72.0,69.2,28.59,SE,135,0.0,0.0,91,0.00,CLR,SKC,0.00,WeatherDisplay:10.37,2013-10-04 00:25:00,
2013-10-03 20:30:00,72.1,69.4,28.59,SE,135,0.0,0.0,91,0.00,CLR,SKC,0.00,WeatherDisplay:10.37,2013-10-04 00:30:00,
2013-10-03 20:35:00,72.1,69.4,28.59,SE,135,0.0,0.0,91,0.00,CLR,SKC,0.00,WeatherDisplay:10.37,2013-10-04 00:35:00,
2013-10-03 20:40:00,72.0,69.2,28.60,SE,135,0.0,0.0,91,0.00,CLR,SKC,0.00,WeatherDisplay:10.37,2013-10-04 00:40:00,
2013-10-03 20:45:00,72.0,69.2,28.60,SE,135,0.0,0.0,91,0.00,CLR,SKC,0.00,WeatherDisplay:10.37,2013-10-04 00:45:00,
2013-10-03 20:50:00,71.8,69.3,28.61,North,0,15.0,15.0,92,0.00,CLR,SKC,0.00,WeatherDisplay:10.37,2013-10-04 00:50:00,
2013-10-03 20:55:00,71.4,69.0,28.61,North,0,6.9,6.9,92,0.00,CLR,SKC,0.00,WeatherDisplay:10.37,2013-10-04 00:55:00,
2013-10-03 21:00:00,70.9,68.8,28.61,NW,315,8.1,8.1,93,0.00,CLR,SKC,0.00,WeatherDisplay:10.37,2013-10-04 01:00:00,
2013-10-03 21:05:00,70.9,68.8,28.61,NW,315,8.1,8.1,93,0.00,CLR,SKC,0.00,WeatherDisplay:10.37,2013-10-04 01:05:00,
2013-10-03 21:10:00,69.8,67.4,28.61,NNE,14,1.2,1.2,92,0.01,RA,SKC,0.01,WeatherDisplay:10.37,2013-10-04 01:10:00,
2013-10-03 21:15:00,69.4,67.0,28.62,NNE,14,2.3,0.0,92,0.01,RA,SKC,0.01,WeatherDisplay:10.37,2013-10-04 01:15:00,
2013-10-03 21:20:00,69.1,66.7,28.62,North,0,1.2,1.2,92,0.02,RA,SKC,0.02,WeatherDisplay:10.37,2013-10-04 01:20:00,
2013-10-03 21:25:00,68.7,66.6,28.62,North,2,4.6,4.6,93,0.04,RA,SKC,0.04,WeatherDisplay:10.37,2013-10-04 01:25:00,
2013-10-03 21:30:00,68.4,66.3,28.62,South,180,2.3,0.0,93,0.04,RA,SKC,0.04,WeatherDisplay:10.37,2013-10-04 01:30:00,
2013-10-03 21:35:00,68.0,65.6,28.62,North,1,1.2,0.0,92,0.04,CLR,SKC,0.04,WeatherDisplay:10.37,2013-10-04 01:35:00,
2013-10-03 21:40:00,67.6,65.2,28.62,East,90,0.0,0.0,92,0.04,CLR,SKC,0.04,WeatherDisplay:10.37,2013-10-04 01:40:00,
2013-10-03 21:45:00,67.5,64.7,28.62,North,0,0.0,0.0,91,0.04,CLR,SKC,0.04,WeatherDisplay:10.37,2013-10-04 01:45:00,
2013-10-03 21:50:00,67.5,64.7,28.61,North,0,0.0,0.0,91,0.04,CLR,SKC,0.04,WeatherDisplay:10.37,2013-10-04 01:50:00,
2013-10-03 21:55:00,67.3,64.6,28.61,North,0,0.0,0.0,91,0.04,CLR,SKC,0.04,WeatherDisplay:10.37,2013-10-04 01:55:00,
2013-10-03 22:00:00,67.3,64.6,28.61,NE,45,0.0,0.0,91,0.04,CLR,SKC,0.04,WeatherDisplay:10.37,2013-10-04 02:00:00,
2013-10-03 22:05:00,67.3,64.6,28.61,NE,45,0.0,0.0,91,0.04,CLR,SKC,0.04,WeatherDisplay:10.37,2013-10-04 02:05:00,
2013-10-03 22:10:00,67.1,64.1,28.61,East,90,0.0,0.0,90,0.02,CLR,SKC,0.04,WeatherDisplay:10.37,2013-10-04 02:10:00,
2013-10-03 22:15:00,66.9,63.9,28.61,South,180,0.0,0.0,90,0.02,CLR,SKC,0.04,WeatherDisplay:10.37,2013-10-04 02:15:00,
2013-10-03 22:20:00,66.9,63.9,28.61,SE,135,0.0,0.0,90,0.01,CLR,SKC,0.04,WeatherDisplay:10.37,2013-10-04 02:20:00,
2013-10-03 22:25:00,66.9,63.6,28.61,SE,135,0.0,0.0,89,0.00,CLR,SKC,0.04,WeatherDisplay:10.37,2013-10-04 02:25:00,
2013-10-03 22:30:00,66.9,63.6,28.61,SE,135,0.0,0.0,89,0.00,CLR,SKC,0.04,WeatherDisplay:10.37,2013-10-04 02:30:00,
2013-10-03 22:35:00,66.9,63.6,28.61,SE,135,0.0,0.0,89,0.00,CLR,SKC,0.04,WeatherDisplay:10.37,2013-10-04 02:35:00,
2013-10-03 22:40:00,66.7,63.4,28.61,SE,135,1.2,0.0,89,0.00,CLR,SKC,0.04,WeatherDisplay:10.37,2013-10-04 02:40:00,
2013-10-03 22:45:00,66.7,63.4,28.61,SE,135,1.2,0.0,89,0.00,CLR,SKC,0.04,WeatherDisplay:10.37,2013-10-04 02:45:00,
2013-10-03 22:50:00,66.7,63.7,28.61,SE,135,2.3,2.3,90,0.00,CLR,SKC,0.04,WeatherDisplay:10.37,2013-10-04 02:50:00,
2013-10-03 22:55:00,66.7,64.0,28.61,SE,135,2.3,2.3,91,0.00,CLR,SKC,0.04,WeatherDisplay:10.37,2013-10-04 02:55:00,
2013-10-03 23:00:00,66.7,64.0,28.61,SE,135,2.3,2.3,91,0.00,CLR,SKC,0.04,WeatherDisplay:10.37,2013-10-04 03:00:00,
2013-10-03 23:05:00,66.7,64.0,28.61,SE,135,0.0,0.0,91,0.00,CLR,SKC,0.04,WeatherDisplay:10.37,2013-10-04 03:05:00,
2013-10-03 23:10:00,66.7,63.7,28.61,SE,135,0.0,0.0,90,0.00,CLR,SKC,0.04,WeatherDisplay:10.37,2013-10-04 03:10:00,
2013-10-03 23:15:00,66.6,63.5,28.61,SE,135,0.0,0.0,90,0.00,CLR,SKC,0.04,WeatherDisplay:10.37,2013-10-04 03:15:00,
2013-10-03 23:20:00,66.6,63.2,28.61,SE,135,0.0,0.0,89,0.00,CLR,SKC,0.04,WeatherDisplay:10.37,2013-10-04 03:20:00,
2013-10-03 23:25:00,66.4,62.7,28.61,SE,135,0.0,0.0,88,0.00,CLR,SKC,0.04,WeatherDisplay:10.37,2013-10-04 03:25:00,
2013-10-03 23:30:00,66.4,62.7,28.61,SE,135,0.0,0.0,88,0.00,CLR,SKC,0.04,WeatherDisplay:10.37,2013-10-04 03:30:00,
2013-10-03 23:35:00,66.4,62.4,28.61,SE,135,0.0,0.0,87,0.00,CLR,SKC,0.04,WeatherDisplay:10.37,2013-10-04 03:35:00,
2013-10-03 23:40:00,66.2,61.9,28.61,SE,135,0.0,0.0,86,0.00,CLR,SKC,0.04,WeatherDisplay:10.37,2013-10-04 03:40:00,
2013-10-03 23:45:00,66.0,61.4,28.61,SE,135,0.0,0.0,85,0.00,CLR,SKC,0.04,WeatherDisplay:10.37,2013-10-04 03:45:00,
2013-10-03 23:50:00,66.0,61.0,28.61,SE,135,0.0,0.0,84,0.00,CLR,SKC,0.04,WeatherDisplay:10.37,2013-10-04 03:50:00,
2013-10-03 23:55:00,66.0,60.7,28.61,SE,135,0.0,0.0,83,0.00,CLR,SKC,0.04,WeatherDisplay:10.37,2013-10-04 03:55:00,